Regional Weather Roundup
Issued by NWS Albany, NY

Home | Current Version | Previous Version | Text Only | Print | Product List | Glossary On
Versions: 1 2 3 4 5 6 7 8 9 10 11 12 13 14 15 16 17 18 19 20 21 22 23 24 25 26 27 28 29 30 31 32 33 34 35 36 37 38 39 40 41 42 43 44 45 46 47 48 49 50
000
ASUS41 KALY 260110
RWRALY

NEW YORK STATE HOURLY WEATHER ROUNDUP
NATIONAL WEATHER SERVICE ALBANY NY
900 PM EDT FRI JUL 25 2014

NOTE: "FAIR" INDICATES FEW OR NO CLOUDS BELOW 12,000 FEET WITH NO
SIGNIFICANT WEATHER AND/OR NO OBSTRUCTIONS TO VISIBILITY.

NYZ032-033-038>043-046>054-057>066-NYZ062>081-260200-
EAST


CITY           SKY/WX    TMP DP  RH WIND       PRES   REMARKS
ALBANY         PTCLDY    72  59  63 CALM      29.97R
GLENS FALLS    CLEAR     72  52  49 W8        29.95R
POUGHKEEPSIE   CLEAR     69  61  75 CALM      29.98R
NEWBURGH       CLEAR     70  59  68 CALM      30.02R
MONTGOMERY     CLEAR     66  59  78 CALM      30.00R
WHITE PLAINS   CLEAR     71  58  63 S5        30.01R
ISLIP          PTCLDY    72  61  68 SW8       30.00R
NEW YORK CITY  PTCLDY    77  56  48 SW10      30.00R
CENTRAL PARK   PTCLDY    75  57  53 VRB6G17   30.03R
$$

NYZ005>009-017-018-044>046-055-056-260200-
CENTRAL


CITY           SKY/WX    TMP DP  RH WIND       PRES   REMARKS
FULTON         CLEAR     62  57  83 CALM      29.96F
SYRACUSE       PTCLDY    68  55  63 N7        29.96F
ROME           CLEAR     64  58  80 E3        29.98F
ELMIRA         MOCLDY    65  59  81 CALM      29.98S
BINGHAMTON     PTCLDY    68  52  56 CALM      30.01F
MONTICELLO     CLEAR     66  55  68 S5        30.04S
$$

NYZ026>034-041>043-260200-
NORTH


CITY           SKY/WX    TMP DP  RH WIND       PRES   REMARKS
WATERTOWN      CLEAR     65  54  67 S5        29.95S
FORT DRUM      NOT AVBL
MASSENA        CLEAR     66  54  65 S12       29.92R
SARANAC LAKE   CLEAR     61  50  67 SW5       29.98R
PLATTSBURGH    CLEAR     70  55  59 CALM      29.91R
$$

NYZ001>004-010>016-019>021-260200-
WEST


CITY           SKY/WX    TMP DP  RH WIND       PRES   REMARKS
NIAGARA FALLS  MOCLDY    67  55  65 SW9       29.96F
BUFFALO        MOCLDY    68  55  63 SW8       29.98S
DUNKIRK        PTCLDY    64  56  75 S3        29.99F
JAMESTOWN      PTCLDY    63  52  67 N5        30.03R
WELLSVILLE     PTCLDY    65  48  54 W5        30.04S
ROCHESTER      MOCLDY    69  51  52 CALM      29.97S
PENN YAN       MOCLDY    66  58  75 S3        29.98S
$$

             KEY
       WCI = WIND CHILL INDEX
       VSB = VISIBILITY
       HX  = HEAT INDEX
$$



USA.gov is the U.S. government's official web portal to all federal, state and local government web resources and services.